logo tempoitalia

Diretta Meteo Tokyo, Giapponesabato 25 maggio ore 06:30

Mappa
Sereno 20 °C Molto Nuvoloso 24 Ore: T.min 20 T.max 27
Ponente Est Km/h 18.5 Punto di rugiada: 15 °C Umidità: 72% Visibilità: 10 Km
Il sole sorge alle: 04:28 Il sole tramonta alle: 18:47
25 Maggio 2024 06:30 tempo osservato: Molto Nuvoloso Molto Nuvoloso 20 72 1011 vento: Nord E 18.5
25 Maggio 2024 06:00 tempo osservato: Molto Nuvoloso Molto Nuvoloso 20 68 1011 vento: Nord E 18.5
25 Maggio 2024 05:30 tempo osservato: Molto Nuvoloso Molto Nuvoloso 20 72 1010 vento: Nord E/NE 16.7
25 Maggio 2024 05:00 tempo osservato: Molto Nuvoloso Molto Nuvoloso 20 72 1010 vento: Nord E/NE 20.3
25 Maggio 2024 04:30 tempo osservato: Molto Nuvoloso Molto Nuvoloso 20 72 1009 vento: Nord E/NE 24
25 Maggio 2024 04:00 tempo osservato: Molto Nuvoloso Molto Nuvoloso 20 72 1009 vento: Nord E/NE 27.8
25 Maggio 2024 03:30 tempo osservato: Molto Nuvoloso Molto Nuvoloso 21 73 1008 vento: Nord E/NE 29.6
25 Maggio 2024 03:00 tempo osservato: Molto Nuvoloso Molto Nuvoloso 21 77 1008 vento: Nord N/NE 24
25 Maggio 2024 02:30 tempo osservato: Molto Nuvoloso Molto Nuvoloso 22 78 1007 vento: Nord N/NE 24
25 Maggio 2024 02:00 tempo osservato: Sereno Sereno 22 73 1007 vento: Nord N/NE 20.3
25 Maggio 2024 01:30 tempo osservato: Sereno Sereno 22 64 1006 vento: Nord N 22.2
25 Maggio 2024 01:00 tempo osservato: Sereno Sereno 23 60 1006 vento: Nord N 18.5
25 Maggio 2024 00:30 tempo osservato: Sereno Sereno 23 56 1006 vento: Nord N 22.2
25 Maggio 2024 00:00 tempo osservato: Sereno Sereno 23 68 1006 vento: Nord N/NO 14.8
24 Maggio 2024 23:30 tempo osservato: Sereno Sereno 24 60 1006 vento: Nord O 13
24 Maggio 2024 23:00 tempo osservato: Sereno Sereno 23 73 1006 vento: Nord O/SO 9.3
24 Maggio 2024 22:30 tempo osservato: Sereno Sereno 23 73 1006 vento: Nord S/SO 14.8
24 Maggio 2024 22:00 tempo osservato: Sereno Sereno 23 73 1005 vento: Nord S/SO 13
24 Maggio 2024 21:30 tempo osservato: Sereno Sereno 23 73 1005 vento: Nord S 16.7
24 Maggio 2024 21:00 tempo osservato: Sereno Sereno 23 73 1006 vento: Nord S 11.1
24 Maggio 2024 20:30 tempo osservato: Sereno Sereno 22 78 1005 vento: Nord S 16.7
24 Maggio 2024 19:30 tempo osservato: Sereno Sereno 23 68 1004 vento: Nord S 18.5
24 Maggio 2024 19:00 tempo osservato: Sereno Sereno 23 68 1004 vento: Nord S 20.3
24 Maggio 2024 18:30 tempo osservato: Sereno Sereno 24 64 1004 vento: Nord S 22.2
24 Maggio 2024 18:00 tempo osservato: Sereno Sereno 24 60 1004 vento: Nord S 24
24 Maggio 2024 17:30 tempo osservato: Sereno Sereno 24 64 1004 vento: Nord S 24
24 Maggio 2024 17:00 tempo osservato: Sereno Sereno 25 57 1004 vento: Nord S 27.8
24 Maggio 2024 16:30 tempo osservato: Sereno Sereno 25 61 1004 vento: Nord S 25.9
24 Maggio 2024 16:00 tempo osservato: Sereno Sereno 26 54 1004 vento: Nord S 24
24 Maggio 2024 15:30 tempo osservato: Sereno Sereno 27 54 1004 vento: Nord S 25.9
24 Maggio 2024 15:00 tempo osservato: Sereno Sereno 27 57 1004 vento: Nord S 29.6
24 Maggio 2024 14:30 tempo osservato: Sereno Sereno 26 57 1005 vento: Nord S 25.9
24 Maggio 2024 14:00 tempo osservato: Sereno Sereno 26 61 1004 vento: Nord S 24
24 Maggio 2024 13:30 tempo osservato: Sereno Sereno 26 61 1005 vento: Nord S 24
24 Maggio 2024 13:00 tempo osservato: Sereno Sereno 26 61 1005 vento: Nord S 18.5
24 Maggio 2024 12:30 tempo osservato: Sereno Sereno 26 57 1005 vento: Nord S 18.5
24 Maggio 2024 12:00 tempo osservato: Sereno Sereno 25 61 1006 vento: Nord S 16.7
24 Maggio 2024 11:30 tempo osservato: Sereno Sereno 25 65 1006 vento: Nord S 16.7
24 Maggio 2024 11:00 tempo osservato: Sereno Sereno 24 69 1006 vento: Nord S 13
24 Maggio 2024 10:30 tempo osservato: Sereno Sereno 25 65 1006 vento: Nord S 13
24 Maggio 2024 10:00 tempo osservato: Sereno Sereno 24 64 1006 vento: Nord S 11.1
24 Maggio 2024 09:30 tempo osservato: Sereno Sereno 23 68 1006 vento: Nord N 5.5
24 Maggio 2024 09:00 tempo osservato: Sereno Sereno 22 78 1006 vento: Nord E 7.4
24 Maggio 2024 08:30 tempo osservato: Sereno Sereno 22 78 1006 vento: Nord N 5.5
24 Maggio 2024 08:00 tempo osservato: Molto Nuvoloso Molto Nuvoloso 22 78 1007 vento: Nord N 3.7